Regional Weather Roundup
Issued by NWS Jackson, KY

Home | Current Version | Previous Version | Text Only | Print | Product List | Glossary On
Versions: 1 2 3 4 5 6 7 8 9 10 11 12 13 14 15 16 17 18 19 20 21 22 23 24 25 26 27 28 29 30 31 32 33 34 35 36 37 38 39 40 41 42 43 44 45 46 47 48 49 50
000
ASUS43 KJKL 210810
RWRJKL

EAST KENTUCKY HOURLY WEATHER ROUNDUP
NATIONAL WEATHER SERVICE JACKSON KY
300 AM EST TUE FEB 21 2017

NOTE: "FAIR" INDICATES FEW OR NO CLOUDS BELOW 12,000 FEET WITH
NO SIGNIFICANT WEATHER AND/OR OBSTRUCTIONS TO VISIBILITY.

* THESE REPORTS ARE NOT UNDER NWS QUALITY CONTROL AND MAY NOT
  REPORT WEATHER SUCH AS PRECIPITATION AND FOG.

KYZ079-080-083-085-087-088-110-112-115-119-120-210900
...EASTERN KENTUCKY...

CITY           SKY/WX    TMP DP  RH WIND       PRES   REMARKS
JACKSON        MOCLDY    54  37  52 SW5       30.09R
LONDON         CLOUDY    48  41  76 CALM      30.09S
SOMERSET*      MOCLDY    52  41  66 CALM      30.08F
WILLIAMSBURG*  CLOUDY    54  43  66 SE6       30.08F
MIDDLESBORO*   PTCLDY    42  41  97 CALM      30.12F
HARLAN APT*    MOSUNNY   50  36  57 CALM      30.12S
PIKE CO APT*     N/A     56  35  45 S6        30.10R
BIG SANDY APT* CLOUDY    55  36  49 SW5       30.09R
MOREHEAD APT*  PTSUNNY   52  39  62 SE6       30.08S
ASHLAND*       MOCLDY    41  39  93 CALM      30.06S
$$

KYZ035-036-041-042-044-050-067-078-099-210900
...CENTRAL KENTUCKY...

CITY           SKY/WX    TMP DP  RH WIND       PRES   REMARKS
MT STERLING*   PTCLDY    52  41  66 S6        30.06F
FLEMING/MASON* CLOUDY    50  39  65 S5        30.06F
DANVILLE*      CLOUDY    54  41  62 SW6       30.06S
LEXINGTON      MOCLDY    57  40  52 SE12      30.04F
FRANKFORT      CLOUDY    54  40  59 SE5       30.02F
LOUISVILLE     CLOUDY    57  41  55 SE5       30.00S
LEBANON*         N/A     59  43  55 S12       30.03F
GLASGOW*       CLOUDY    61  45  56 SE7       30.01F
BOWLING GREEN  MOCLDY    60  44  55 SE3       30.00F
$$

KYZ091>093-OHZ055-061-077-WVZ005-015-034-035-042-210900
...SOUTHERN OHIO/WEST VIRGINIA...

CITY           SKY/WX    TMP DP  RH WIND       PRES   REMARKS
COVINGTON      CLOUDY    53  40  61 SE6       30.02F
COLUMBUS       CLOUDY    52  38  58 SE3       30.05F
DAYTON         CLOUDY    47  40  76 S6        30.04F
WILMINGTON     PTCLDY    47  40  76 SE6       30.04S
HUNTINGTON     PTCLDY    46  39  76 CALM      30.07F
CHARLESTON     PTCLDY    45  40  82 N3        30.09R
PINEVILLE*     CLOUDY    44  36  73 MISG      30.18F
BECKLEY        PTCLDY    54  35  48 SE10G18   30.16S
BLUEFIELD      CLOUDY    54  34  46 S8        30.18S
LOGAN CO APT*    N/A     59  32  36 CALM      30.10S
$$

VAZ002-007-008-TNZ017-027-036-066-071-210900
...SOUTHWEST VIRGINIA/EAST TENNESSEE...

CITY           SKY/WX    TMP DP  RH WIND       PRES   REMARKS
WISE*          PTCLDY    55  28  35 CALM      30.16R
JONESVILLE*      N/A     43  39  87 CALM      30.15R
ABINGDON*      CLOUDY    54  35  47 E10       30.15F
BRISTOL        MOCLDY    41  36  82 CALM      30.14S
MORRISTOWN*    SUNNY     48  45  87 CALM      30.11R
SEVIERVILLE*   SUNNY     43  39  87 CALM      30.11R
KNOXVILLE      MOCLDY    48  43  82 E3        30.10R
LAFOLLETTE*    SUNNY     45  43  93 CALM      30.13F
OAK RIDGE      CLOUDY    47  44  90 CALM      30.11F
CROSSVILLE     CLOUDY    54  43  66 CALM      30.09F
NASHVILLE      MOCLDY    58  45  62 SE6       30.00F
$$

...KEY TO REMARKS...
VSB - VISIBILITY IN MILES
WCI - WIND CHILL INDEX
HX  - HEAT INDEX

$$



USA.gov is the U.S. government's official web portal to all federal, state and local government web resources and services.